| time (UTC) | temp F | wind direction | speed knots | gust knots | rain 1hr in | rain 24hr in | rain mn in | humidity % | barometer mb |
| 20260506101235 | 60 | 196 | 0.0 | 0.9 | 0.00 | 0.00 | 0.00 | 85 | 1013.3 |
| 20260506095205 | 60 | 196 | 0.0 | 0.0 | 0.00 | 0.00 | 0.00 | 84 | 1013.5 |
| 20260506094205 | 60 | 196 | 0.0 | 0.0 | 0.00 | 0.00 | 0.00 | 84 | 1013.4 |
| 20260506093234 | 60 | 196 | 0.0 | 1.7 | 0.00 | 0.00 | 0.00 | 83 | 1013.3 |
| 20260506092204 | 59 | 158 | 0.0 | 1.7 | 0.00 | 0.00 | 0.00 | 83 | 1013.1 |
| 20260506091235 | 59 | 176 | 0.9 | 1.7 | 0.00 | 0.00 | 0.00 | 82 | 1013.2 |
| 20260506090204 | 60 | 192 | 1.7 | 2.6 | 0.00 | 0.00 | 0.00 | 81 | 1013.3 |
| 20260506085204 | 60 | 190 | 0.0 | 1.7 | 0.00 | 0.00 | 0.00 | 80 | 1013.3 |
| 20260506082204 | 60 | 186 | 1.7 | 2.6 | 0.00 | 0.00 | 0.00 | 79 | 1013.6 |
| 20260506081204 | 59 | 183 | 0.0 | 1.7 | 0.00 | 0.00 | 0.00 | 81 | 1013.6 |
| 20260506080234 | 59 | 185 | 0.0 | 1.7 | 0.00 | 0.00 | 0.00 | 82 | 1013.7 |
| 20260506073204 | 58 | 169 | 0.0 | 0.0 | 0.00 | 0.00 | 0.00 | 81 | 1013.8 |
| 20260506072234 | 58 | 169 | 0.0 | 0.0 | 0.00 | 0.00 | 0.00 | 82 | 1013.8 |
| 20260506071234 | 58 | 169 | 0.0 | 0.0 | 0.00 | 0.00 | 0.00 | 80 | 1013.8 |
| 20260506070234 | 58 | 169 | 0.0 | 0.0 | 0.00 | 0.00 | 0.00 | 79 | 1013.9 |
| 20260506062203 | 59 | 169 | 0.0 | 0.0 | 0.00 | 0.00 | 0.00 | 81 | 1014.1 |
| 20260506061204 | 60 | 169 | 0.0 | 0.9 | 0.00 | 0.00 | 0.00 | 79 | 1013.9 |
| 20260506051233 | 62 | 216 | 0.0 | 0.0 | 0.00 | 0.00 | 0.00 | 70 | 1013.8 |
| 20260506050233 | 63 | 216 | 0.0 | 1.7 | 0.00 | 0.00 | 0.00 | 66 | 1014.1 |
| 20260506044233 | 63 | 194 | 0.0 | 1.7 | 0.00 | 0.00 | 0.00 | 68 | 1013.8 |
| 20260506043233 | 64 | 207 | 0.0 | 1.7 | 0.00 | 0.00 | 0.00 | 65 | 1013.9 |
| 20260506042232 | 62 | 179 | 0.0 | 0.0 | 0.00 | 0.00 | 0.00 | 70 | 1013.7 |
| 20260506041233 | 62 | 179 | 0.0 | 1.7 | 0.00 | 0.00 | 0.00 | 71 | 1013.7 |
| 20260506040233 | 62 | 200 | 0.0 | 1.7 | 0.00 | 0.00 | 0.00 | 72 | 1014.2 |
| 20260506035233 | 63 | 241 | 0.0 | 1.7 | 0.00 | 0.00 | 0.00 | 67 | 1014.2 |
| 20260506034232 | 63 | 241 | 0.0 | 0.0 | 0.00 | 0.00 | 0.00 | 67 | 1014.4 |
| 20260506033232 | 64 | 241 | 0.0 | 1.7 | 0.00 | 0.00 | 0.00 | 65 | 1014.2 |
| 20260506032232 | 64 | 241 | 0.9 | 1.7 | 0.00 | 0.00 | 0.00 | 66 | 1014.1 |
| 20260506031232 | 63 | 177 | 0.0 | 0.0 | 0.00 | 0.00 | 0.00 | 68 | 1013.7 |
| 20260506030232 | 64 | 177 | 0.0 | 1.7 | 0.00 | 0.00 | 0.00 | 67 | 1013.9 |
| 20260506025233 | 65 | 177 | 0.0 | 0.9 | 0.00 | 0.00 | 0.00 | 64 | 1014.0 |
| 20260506023232 | 65 | 178 | 0.0 | 1.7 | 0.00 | 0.00 | 0.00 | 63 | 1014.3 |
| 20260506021232 | 64 | 167 | 0.0 | 2.6 | 0.00 | 0.00 | 0.00 | 65 | 1013.9 |
| 20260506020232 | 65 | 167 | 0.0 | 2.6 | 0.00 | 0.00 | 0.00 | 63 | 1013.9 |
| 20260506015231 | 66 | 178 | 0.0 | 0.9 | 0.00 | 0.00 | 0.00 | 59 | 1013.8 |
| 20260506014231 | 67 | 215 | 1.7 | 1.7 | 0.00 | 0.00 | 0.00 | 59 | 1013.9 |
| 20260506013231 | 67 | 238 | 0.0 | 0.9 | 0.00 | 0.00 | 0.00 | 58 | 1013.8 |
| 20260506012231 | 68 | 155 | 0.0 | 0.0 | 0.00 | 0.00 | 0.00 | 57 | 1013.6 |
| 20260506011231 | 70 | 133 | 0.9 | 0.9 | 0.00 | 0.00 | 0.00 | 54 | 1013.5 |
| 20260506010231 | 70 | 184 | 0.0 | 0.9 | 0.00 | 0.00 | 0.00 | 51 | 1013.6 |
| 20260506005231 | 71 | 221 | 0.0 | 1.7 | 0.00 | 0.00 | 0.00 | 50 | 1013.8 |
| 20260506004231 | 71 | 198 | 0.9 | 1.7 | 0.00 | 0.00 | 0.00 | 51 | 1013.6 |
| 20260506003231 | 72 | 186 | 0.9 | 2.6 | 0.00 | 0.00 | 0.00 | 49 | 1013.6 |
| 20260506002231 | 73 | 192 | 0.9 | 2.6 | 0.00 | 0.00 | 0.00 | 47 | 1013.6 |
| 20260506001231 | 73 | 210 | 0.0 | 1.7 | 0.00 | 0.00 | 0.00 | 46 | 1013.7 |
| 20260506000231 | 75 | 175 | 0.0 | 2.6 | 0.00 | 0.00 | 0.00 | 43 | 1013.7 |
| 20260505235231 | 75 | 202 | 1.7 | 3.5 | 0.00 | 0.00 | 0.00 | 42 | 1013.7 |
| 20260505234231 | 76 | 201 | 1.7 | 4.3 | 0.00 | 0.00 | 0.00 | 41 | 1013.5 |
| 20260505233231 | 77 | 193 | 0.9 | 7.0 | 0.00 | 0.00 | 0.00 | 40 | 1013.5 |
| 20260505232231 | 78 | 232 | 1.7 | 4.3 | 0.00 | 0.00 | 0.00 | 39 | 1013.3 |
| 20260505231231 | 78 | 194 | 1.7 | 7.0 | 0.00 | 0.00 | 0.00 | 38 | 1013.3 |
| 20260505230231 | 78 | 212 | 1.7 | 7.0 | 0.00 | 0.00 | 0.00 | 37 | 1013.3 |
| 20260505225231 | 79 | 171 | 7.0 | 8.7 | 0.00 | 0.00 | 0.00 | 35 | 1013.1 |
| 20260505223230 | 79 | 178 | 1.7 | 7.0 | 0.00 | 0.00 | 0.00 | 38 | 1013.1 |
| 20260505222230 | 79 | 117 | 4.3 | 8.7 | 0.00 | 0.00 | 0.00 | 37 | 1013.1 |
| 20260505221230 | 79 | 202 | 4.3 | 11.3 | 0.00 | 0.00 | 0.00 | 37 | 1013.0 |
| 20260505220230 | 80 | 205 | 2.6 | 8.7 | 0.00 | 0.00 | 0.00 | 36 | 1013.1 |
| 20260505215230 | 80 | 214 | 7.0 | 8.7 | 0.00 | 0.00 | 0.00 | 35 | 1013.1 |
| 20260505214230 | 80 | 182 | 5.2 | 6.1 | 0.00 | 0.00 | 0.00 | 36 | 1013.1 |
| 20260505213230 | 80 | 192 | 3.5 | 9.6 | 0.00 | 0.00 | 0.00 | 36 | 1013.1 |
| 20260505212230 | 80 | 198 | 7.0 | 8.7 | 0.00 | 0.00 | 0.00 | 36 | 1013.2 |
| 20260505211230 | 80 | 197 | 6.1 | 9.6 | 0.00 | 0.00 | 0.00 | 38 | 1013.3 |
| 20260505210230 | 80 | 226 | 3.5 | 8.7 | 0.00 | 0.00 | 0.00 | 40 | 1013.3 |
| 20260505205230 | 80 | 187 | 5.2 | 12.2 | 0.00 | 0.00 | 0.00 | 40 | 1013.4 |
| 20260505204230 | 79 | 205 | 3.5 | 8.7 | 0.00 | 0.00 | 0.00 | 42 | 1013.7 |
| 20260505203230 | 80 | 275 | 1.7 | 8.7 | 0.00 | 0.00 | 0.00 | 41 | 1013.6 |
| 20260505202230 | 79 | 209 | 2.6 | 4.3 | 0.00 | 0.00 | 0.00 | 43 | 1013.6 |
| 20260505200229 | 80 | 209 | 4.3 | 8.7 | 0.00 | 0.00 | 0.00 | 42 | 1013.8 |
| 20260505195229 | 79 | 189 | 2.6 | 9.6 | 0.00 | 0.00 | 0.00 | 41 | 1013.9 |
| 20260505194229 | 78 | 267 | 1.7 | 8.7 | 0.00 | 0.00 | 0.00 | 41 | 1014.1 |
| 20260505193229 | 79 | 166 | 5.2 | 8.7 | 0.00 | 0.00 | 0.00 | 41 | 1014.2 |
| 20260505191229 | 78 | 239 | 3.5 | 6.1 | 0.00 | 0.00 | 0.00 | 43 | 1014.7 |
| 20260505190229 | 78 | 203 | 3.5 | 7.8 | 0.00 | 0.00 | 0.00 | 40 | 1014.8 |
| 20260505184229 | 77 | 137 | 3.5 | 13.0 | 0.00 | 0.00 | 0.00 | 45 | 1014.8 |
| 20260505183229 | 76 | 113 | 3.5 | 8.7 | 0.00 | 0.00 | 0.00 | 44 | 1015.0 |
| 20260505181228 | 77 | 265 | 4.3 | 4.3 | 0.00 | 0.00 | 0.00 | 46 | 1015.6 |
| 20260505180229 | 77 | 246 | 3.5 | 8.7 | 0.00 | 0.00 | 0.00 | 44 | 1015.9 |
| 20260505175228 | 76 | 213 | 3.5 | 8.7 | 0.00 | 0.00 | 0.00 | 44 | 1016.0 |
| 20260505174228 | 76 | 156 | 2.6 | 8.7 | 0.00 | 0.00 | 0.00 | 43 | 1015.9 |
| 20260505173228 | 76 | 167 | 7.8 | 12.2 | 0.00 | 0.00 | 0.00 | 44 | 1016.1 |
| 20260505172228 | 76 | 141 | 2.6 | 7.8 | 0.00 | 0.00 | 0.00 | 50 | 1016.0 |
| 20260505171228 | 75 | 231 | 5.2 | 8.7 | 0.00 | 0.00 | 0.00 | 49 | 1016.1 |
| 20260505170228 | 74 | 161 | 4.3 | 8.7 | 0.00 | 0.00 | 0.00 | 50 | 1016.0 |
| 20260505165228 | 74 | 180 | 3.5 | 7.8 | 0.00 | 0.00 | 0.00 | 52 | 1016.1 |
| 20260505164228 | 74 | 194 | 2.6 | 8.7 | 0.00 | 0.00 | 0.00 | 52 | 1016.2 |
| 20260505163228 | 73 | 232 | 3.5 | 7.0 | 0.00 | 0.00 | 0.00 | 52 | 1016.3 |
| 20260505160228 | 72 | 277 | 3.5 | 7.0 | 0.00 | 0.00 | 0.00 | 55 | 1016.7 |
| 20260505153228 | 71 | 169 | 3.5 | 5.2 | 0.00 | 0.00 | 0.00 | 59 | 1016.8 |
| 20260505150227 | 69 | 213 | 2.6 | 4.3 | 0.00 | 0.00 | 0.00 | 63 | 1016.8 |
| 20260505140227 | 65 | 195 | 3.5 | 6.1 | 0.00 | 0.00 | 0.00 | 68 | 1016.2 |
| 20260505130227 | 61 | 133 | 3.5 | 3.5 | 0.00 | 0.00 | 0.00 | 76 | 1015.5 |
| 20260505123227 | 57 | 38 | 0.9 | 0.9 | 0.00 | 0.00 | 0.00 | 82 | 1015.2 |
| 20260505122227 | 56 | 26 | 0.9 | 1.7 | 0.00 | 0.00 | 0.00 | 83 | 1015.2 |
| 20260505121227 | 56 | 309 | 0.0 | 0.0 | 0.00 | 0.00 | 0.00 | 83 | 1015.2 |
| 20260505120226 | 53 | 162 | 0.0 | 1.7 | 0.00 | 0.00 | 0.00 | 86 | 1015.0 |
| 20260505115226 | 53 | 163 | 0.0 | 1.7 | 0.00 | 0.00 | 0.00 | 87 | 1015.0 |
| 20260505114226 | 51 | 163 | 0.0 | 0.0 | 0.00 | 0.00 | 0.00 | 90 | 1014.9 |
| 20260505112226 | 49 | 163 | 0.0 | 0.0 | 0.00 | 0.00 | 0.00 | 93 | 1014.8 |
| 20260505110227 | 47 | 163 | 0.0 | 1.7 | 0.00 | 0.00 | 0.00 | 92 | 1014.7 |